Weather History for Bullhead City, AZ

Change the Weather History Date:

Saturday, June 29, 2013

  Actual Average Record
Temperature  
Mean Temperature 104 °F -  
Max Temperature 120 °F 105 °F 120 °F (2013)
Min Temperature 89 °F 82 °F 62 °F (1991)
Cooling Degree Days 40    
Growing Degree Days 54 (Base 50)    
Moisture  
Dew Point 37 °F    
Average Humidity 10    
Maximum Humidity 17    
Minimum Humidity 5    
Precipitation  
Precipitation 0.00 in - - ()
Sea Level Pressure  
Sea Level Pressure 29.68 in    
Wind  
Wind Speed 4 mph (SSW)    
Max Wind Speed 15 mph    
Max Gust Speed -    
Visibility 10 miles    
Events      
Averages and records for this station are not official NWS values.
T = Trace of Precipitation, MM = Missing Value Source: NWS Daily Summary

Daily Weather History Graph

Daily Weather History Graph

Search for Another Location

Airport:

Trip Planner

Search our weather history database for the weather conditions in past years. The results will help you decide how hot, cold, wet, or windy it might be!

Date:

Astronomy

Jun. 29, 2013 Rise Set
Actual Time 5:26 AM MST 7:56 PM MST
Civil Twilight 4:57 AM MST 8:26 PM MST
Nautical Twilight 4:20 AM MST 9:03 PM MST
Astronomical Twilight 3:39 AM MST 9:43 PM MST
Moon No Moon Rise 12:25 PM MST (6/29)
Length of Visible Light 15h 29m
Length of Day
14h 29m
Waning Gibbous, 54% of the Moon is Illuminated
Jun 29
Waning Gibbous
Jun 29
Last Quarter
Jul 8
New
Jul 15
First Quarter
Jul 22
Full

Hourly Weather History & Observations

Time (MST) Temp. Dew Point Humidity Pressure Visibility Wind Dir Wind Speed Gust Speed Precip Events Conditions
12:15 AM 104.0 °F 37.4 °F 10% 29.70 in 10.0 mi SSE 3.5 mph - N/A   Clear
2:15 AM 98.6 °F 37.4 °F 12% 29.70 in 10.0 mi ENE 6.9 mph - N/A   Clear
2:35 AM 95.0 °F 39.2 °F 14% 29.70 in 10.0 mi Calm Calm - N/A   Clear
2:55 AM 96.8 °F 37.4 °F 13% 29.71 in 10.0 mi Calm Calm - N/A   Clear
3:15 AM 95.0 °F 37.4 °F 13% 29.71 in 10.0 mi East 6.9 mph - N/A   Clear
3:35 AM 95.0 °F 37.4 °F 13% 29.71 in 10.0 mi Calm Calm - N/A   Clear
3:55 AM 93.2 °F 39.2 °F 15% 29.72 in 10.0 mi Calm Calm - N/A   Clear
4:15 AM 91.4 °F 37.4 °F 15% 29.72 in 10.0 mi SE 3.5 mph - N/A   Clear
4:35 AM 91.4 °F 37.4 °F 15% 29.72 in 10.0 mi SSE 4.6 mph - N/A   Clear
4:55 AM 93.2 °F 37.4 °F 14% 29.73 in 10.0 mi Calm Calm - N/A   Clear
5:15 AM 89.6 °F 37.4 °F 16% 29.74 in 10.0 mi Calm Calm - N/A   Clear
5:35 AM 89.6 °F 37.4 °F 16% 29.74 in 10.0 mi Calm Calm - N/A   Clear
5:55 AM 89.6 °F 37.4 °F 16% 29.75 in 10.0 mi Calm Calm - N/A   Clear
6:15 AM 89.6 °F 39.2 °F 17% 29.75 in 10.0 mi Calm Calm - N/A   Clear
6:35 AM 91.4 °F 37.4 °F 15% 29.75 in 10.0 mi Calm Calm - N/A   Clear
6:55 AM 91.4 °F 39.2 °F 16% 29.76 in 10.0 mi Calm Calm - N/A   Clear
7:15 AM 93.2 °F 37.4 °F 14% 29.76 in 10.0 mi Calm Calm - N/A   Clear
7:35 AM 95.0 °F 37.4 °F 13% 29.77 in 10.0 mi Calm Calm - N/A   Clear
7:55 AM 96.8 °F 37.4 °F 13% 29.77 in 10.0 mi Calm Calm - N/A   Clear
8:15 AM 96.8 °F 39.2 °F 14% 29.76 in 10.0 mi Calm Calm - N/A   Clear
8:35 AM 98.6 °F 37.4 °F 12% 29.76 in 10.0 mi Calm Calm - N/A   Clear
8:55 AM 100.4 °F 37.4 °F 11% 29.77 in 10.0 mi Calm Calm - N/A   Clear
9:15 AM 100.4 °F 37.4 °F 11% 29.76 in 10.0 mi Calm Calm - N/A   Clear
9:35 AM 102.2 °F 37.4 °F 11% 29.76 in 10.0 mi Calm Calm - N/A   Clear
9:55 AM 104.0 °F 37.4 °F 10% 29.75 in 10.0 mi WNW 3.5 mph - N/A   Clear
10:15 AM 107.6 °F 37.4 °F 9% 29.75 in 10.0 mi Calm Calm - N/A   Clear
10:35 AM 107.6 °F 37.4 °F 9% 29.75 in 10.0 mi Calm Calm - N/A   Clear
10:55 AM 109.4 °F 37.4 °F 9% 29.74 in 10.0 mi WSW 3.5 mph - N/A   Clear
11:15 AM 109.4 °F 37.4 °F 9% 29.74 in 10.0 mi WSW 5.8 mph - N/A   Clear
11:35 AM 111.2 °F 37.4 °F 8% 29.73 in 10.0 mi West 5.8 mph - N/A   Clear
11:55 AM 113.0 °F 37.4 °F 8% 29.73 in 10.0 mi West 5.8 mph - N/A   Clear
12:15 PM 113.0 °F 37.4 °F 8% 29.72 in 10.0 mi SW 4.6 mph - N/A   Clear
12:35 PM 114.8 °F 37.4 °F 7% 29.71 in 10.0 mi SW 6.9 mph - N/A   Clear
12:55 PM 114.8 °F 39.2 °F 8% 29.70 in 10.0 mi SW 6.9 mph - N/A   Clear
1:15 PM 116.6 °F 39.2 °F 7% 29.69 in 10.0 mi SW 8.1 mph - N/A   Clear
1:35 PM 116.6 °F 39.2 °F 7% 29.68 in 10.0 mi WSW 10.4 mph - N/A   Clear
1:55 PM 116.6 °F 39.2 °F 7% 29.67 in 10.0 mi WSW 5.8 mph - N/A   Clear
2:15 PM 118.4 °F 37.4 °F 7% 29.66 in 10.0 mi SW 6.9 mph - N/A   Clear
2:35 PM 118.4 °F 37.4 °F 7% 29.65 in 10.0 mi WSW 5.8 mph - N/A   Clear
2:55 PM 118.4 °F 37.4 °F 7% 29.64 in 10.0 mi WSW 6.9 mph - N/A   Clear
3:15 PM 120.2 °F 35.6 °F 6% 29.63 in 10.0 mi SW 5.8 mph - N/A   Clear
3:35 PM 118.4 °F 35.6 °F 6% 29.62 in 10.0 mi Calm Calm - N/A   Clear
3:55 PM 120.2 °F 33.8 °F 5% 29.62 in 10.0 mi South 4.6 mph - N/A   Clear
4:15 PM 120.2 °F 33.8 °F 5% 29.61 in 10.0 mi WSW 8.1 mph - N/A   Clear
4:35 PM 118.4 °F 33.8 °F 6% 29.60 in 10.0 mi SSW 6.9 mph - N/A   Clear
4:55 PM 120.2 °F 35.6 °F 6% 29.60 in 10.0 mi WSW 8.1 mph - N/A   Clear
5:15 PM 120.2 °F 35.6 °F 6% 29.59 in 10.0 mi WSW 9.2 mph - N/A   Clear
5:35 PM 120.2 °F 35.6 °F 6% 29.59 in 10.0 mi SW 6.9 mph - N/A   Clear
5:55 PM 120.2 °F 35.6 °F 6% 29.58 in 10.0 mi WSW 8.1 mph - N/A   Clear
6:15 PM 118.4 °F 35.6 °F 6% 29.58 in 10.0 mi SW 10.4 mph - N/A   Clear
6:35 PM 118.4 °F 35.6 °F 6% 29.58 in 10.0 mi SW 10.4 mph - N/A   Clear
6:55 PM 118.4 °F 35.6 °F 6% 29.58 in 10.0 mi SSW 5.8 mph - N/A   Clear
7:15 PM 118.4 °F 35.6 °F 6% 29.59 in 10.0 mi SSW 9.2 mph - N/A   Clear
7:35 PM 116.6 °F 35.6 °F 7% 29.59 in 10.0 mi South 6.9 mph - N/A   Clear
7:55 PM 116.6 °F 35.6 °F 7% 29.59 in 10.0 mi SSE 6.9 mph - N/A   Clear
8:15 PM 113.0 °F 37.4 °F 8% 29.59 in 10.0 mi SE 6.9 mph - N/A   Clear
8:35 PM 111.2 °F 37.4 °F 8% 29.59 in 10.0 mi SE 10.4 mph - N/A   Clear
8:55 PM 111.2 °F 37.4 °F 8% 29.60 in 10.0 mi SE 9.2 mph - N/A   Clear
9:15 PM 111.2 °F 35.6 °F 8% 29.60 in 10.0 mi SSE 12.7 mph - N/A   Clear
9:35 PM 109.4 °F 41.0 °F 10% 29.61 in 10.0 mi South 5.8 mph - N/A   Clear
9:55 PM 105.8 °F 44.6 °F 13% 29.62 in 10.0 mi NW 3.5 mph - N/A   Clear
10:15 PM 107.6 °F 39.2 °F 10% 29.62 in 10.0 mi SSW 5.8 mph - N/A   Clear
10:35 PM 105.8 °F 37.4 °F 10% 29.63 in 10.0 mi SSE 8.1 mph - N/A   Clear
10:55 PM 105.8 °F 37.4 °F 10% 29.63 in 10.0 mi Calm Calm - N/A   Clear
11:15 PM 109.4 °F 37.4 °F 9% 29.63 in 10.0 mi SSE 15.0 mph - N/A   Clear
11:35 PM 107.6 °F 39.2 °F 10% 29.64 in 10.0 mi South 10.4 mph - N/A   Clear
11:55 PM 105.8 °F 39.2 °F 10% 29.65 in 10.0 mi Calm Calm - N/A   Clear